Date String (YYYY-MM-DD hh:mm:ss) UTC,Instrument flags,absolute air pressure of the measurement (hPa),sample flow rate (lpm),inlet stack bypass flow (lpm),air temperature of the measurement (°C),ambient temperature measured by the external sensor (°C),aerosol sample conditioner tube jacket temperature (°C),OPC LED temperature (°C),internal box temperature (°C),relative humidity of the measurement (%),span deviation,mass concentration of particles derived from Lorenz-Mie calculation of OPC scattering (μg/m³),mass concentration of particles derived from Lorenz-Mie calculation of OPC scattering (μg/m³),mass concentration of particles derived from Lorenz-Mie calculation of OPC scattering (μg/m³)
DateTimeUTC,F1_M11,P_M11,Q1_M11,Q2_M11,T1_M11,T2_M11,T3_M11,T4_M11,T5_M11,U1_M11,ZSPAN_M11,X0_M11,X2_M11,X1_M11
2024-04-16 05:00:00,SystemResetWarning,0815.8,5.01,000.00,022.6,021.7,000.0,031.1,024.3,012.9,0000.0,0002.74,0000.41,0000.15
2024-04-16 05:01:00,SystemResetWarning,0815.7,5.01,000.00,022.6,021.8,000.0,031.1,024.3,012.8,0000.0,0002.75,0000.42,0000.14
2024-04-16 05:02:00,SystemResetWarning,0815.8,4.99,000.00,022.6,021.8,000.0,031.1,024.3,012.8,0000.0,0002.74,0000.42,0000.14
2024-04-16 05:03:00,SystemResetWarning,0815.9,4.99,000.00,022.6,021.7,000.0,031.1,024.3,012.9,0000.0,0002.75,0000.42,0000.14
2024-04-16 05:04:00,SystemResetWarning,0815.8,5.00,000.00,022.6,021.8,000.0,031.1,024.4,012.9,0000.0,0002.81,0000.45,0000.15
2024-04-16 05:05:00,SystemResetWarning,0815.8,5.02,000.00,022.6,021.8,000.0,031.1,024.4,012.9,0000.0,0002.82,0000.45,0000.15
2024-04-16 05:06:00,SystemResetWarning,0815.9,5.00,000.00,022.6,021.8,000.0,031.1,024.4,012.8,0000.0,0003.01,0000.45,0000.16
2024-04-16 05:07:00,SystemResetWarning,0815.8,4.99,000.00,022.6,021.8,000.0,031.1,024.4,012.8,0000.0,0002.28,0000.46,0000.16
2024-04-16 05:08:00,SystemResetWarning,0815.8,5.00,000.00,022.6,021.8,000.0,031.1,024.4,012.8,0000.0,0001.83,0000.43,0000.16
2024-04-16 05:09:00,SystemResetWarning,0815.8,5.00,000.00,022.6,021.8,000.0,031.1,024.4,012.9,0000.0,0001.63,0000.37,0000.16
2024-04-16 05:10:00,SystemResetWarning,0815.8,5.00,000.00,022.6,021.8,000.0,031.1,024.4,012.9,0000.0,0001.28,0000.36,0000.16
2024-04-16 05:11:00,SystemResetWarning,0815.9,5.00,000.00,022.6,021.8,000.0,031.1,024.4,012.9,0000.0,0000.94,0000.36,0000.16
2024-04-16 05:12:00,SystemResetWarning,0815.9,5.01,000.00,022.6,021.8,000.0,031.1,024.4,012.9,0000.0,0000.89,0000.35,0000.17
2024-04-16 05:13:00,SystemResetWarning,0815.9,5.00,000.00,022.6,021.8,000.0,031.1,024.4,012.9,0000.0,0000.89,0000.35,0000.18
2024-04-16 05:14:00,SystemResetWarning,0815.8,5.00,000.00,022.6,021.8,000.0,031.1,024.4,012.9,0000.0,0000.91,0000.37,0000.19
2024-04-16 05:15:00,SystemResetWarning,0815.9,4.99,000.00,022.6,021.8,000.0,031.1,024.4,012.9,0000.0,0000.90,0000.37,0000.19
2024-04-16 05:16:00,SystemResetWarning,0815.9,5.00,000.00,022.7,021.9,000.0,031.1,024.5,013.0,0000.0,0000.89,0000.37,0000.19
2024-04-16 05:17:00,SystemResetWarning,0815.9,5.01,000.00,022.7,021.9,000.0,031.1,024.5,013.1,0000.0,0000.69,0000.37,0000.20
2024-04-16 05:18:00,SystemResetWarning,0815.9,5.01,000.00,022.7,021.9,000.0,031.1,024.5,013.1,0000.0,0001.07,0000.39,0000.21
2024-04-16 05:19:00,SystemResetWarning,0815.8,4.99,000.00,022.7,021.9,000.0,031.1,024.5,013.2,0000.0,0001.93,0000.41,0000.22
2024-04-16 05:20:00,SystemResetWarning,0815.9,5.00,000.00,022.7,021.9,000.0,031.1,024.5,013.2,0000.0,0001.97,0000.44,0000.24
2024-04-16 05:21:00,SystemResetWarning,0816.0,5.00,000.00,022.7,022.0,000.0,031.1,024.5,013.2,0000.0,0002.01,0000.46,0000.25
2024-04-16 05:22:00,SystemResetWarning,0816.0,5.00,000.00,022.7,022.0,000.0,031.1,024.5,013.2,0000.0,0002.00,0000.46,0000.26
2024-04-16 05:23:00,SystemResetWarning,0816.0,5.00,000.00,022.7,022.0,000.0,031.1,024.6,013.1,0000.0,0001.99,0000.45,0000.26
2024-04-16 05:24:00,SystemResetWarning,0815.9,5.01,000.00,022.7,022.0,000.0,031.1,024.6,013.1,0000.0,0002.01,0000.46,0000.27
2024-04-16 05:25:00,SystemResetWarning,0816.0,5.00,000.00,022.8,022.1,000.0,031.1,024.6,013.1,0000.0,0001.95,0000.44,0000.27
2024-04-16 05:26:00,SystemResetWarning,0816.0,5.00,000.00,022.8,022.1,000.0,031.2,024.6,013.1,0000.0,0001.96,0000.46,0000.27
2024-04-16 05:27:00,SystemResetWarning,0816.0,5.00,000.00,022.8,022.1,000.0,031.2,024.6,013.0,0000.0,0002.03,0000.48,0000.28
2024-04-16 05:28:00,SystemResetWarning,0816.0,4.98,000.00,022.8,022.1,000.0,031.2,024.6,013.0,0000.0,0002.04,0000.48,0000.28
2024-04-16 05:29:00,SystemResetWarning,0816.0,4.99,000.00,022.8,022.2,000.0,031.2,024.7,013.0,0000.0,0001.75,0000.45,0000.28
2024-04-16 05:30:00,SystemResetWarning,0815.9,5.00,000.00,022.8,022.2,000.0,031.2,024.7,013.0,0000.0,0000.72,0000.46,0000.27
2024-04-16 05:31:00,SystemResetWarning,0815.9,5.00,000.00,022.8,022.2,000.0,031.2,024.7,012.9,0000.0,0000.74,0000.46,0000.26
2024-04-16 05:32:00,SystemResetWarning,0815.9,5.01,000.00,022.8,022.2,000.0,031.2,024.7,012.8,0000.0,0000.70,0000.43,0000.25
2024-04-16 05:33:00,SystemResetWarning,0815.8,5.01,000.00,022.8,022.2,000.0,031.2,024.7,012.9,0000.0,0000.74,0000.45,0000.25
2024-04-16 05:34:00,SystemResetWarning,0815.7,5.00,000.00,022.9,022.2,000.0,031.2,024.7,012.8,0000.0,0000.74,0000.44,0000.25
2024-04-16 05:35:00,SystemResetWarning,0815.5,5.00,000.00,022.9,022.1,000.0,031.2,024.6,012.8,0000.0,0000.78,0000.47,0000.26
2024-04-16 05:36:00,SystemResetWarning,0815.6,5.00,000.00,022.8,022.1,000.0,031.2,024.6,012.8,0000.0,0001.49,0000.51,0000.26
2024-04-16 05:37:00,SystemResetWarning,0815.7,5.00,000.00,022.8,022.1,000.0,031.2,024.6,012.9,0000.0,0002.21,0000.49,0000.26
2024-04-16 05:38:00,SystemResetWarning,0815.8,5.00,000.00,022.8,022.0,000.0,031.2,024.6,012.9,0000.0,0002.14,0000.47,0000.24
2024-04-16 05:39:00,SystemResetWarning,0815.8,5.00,000.00,022.8,022.0,000.0,031.2,024.6,013.0,0000.0,0002.07,0000.44,0000.24
2024-04-16 05:40:00,SystemResetWarning,0815.7,5.00,000.00,022.8,022.0,000.0,031.3,024.6,012.9,0000.0,0002.55,0000.47,0000.25
2024-04-16 05:41:00,SystemResetWarning,0815.6,5.00,000.00,022.8,022.0,000.0,031.3,024.6,012.9,0000.0,0003.95,0000.49,0000.25
2024-04-16 05:42:00,SystemResetWarning,0815.8,5.00,000.00,022.8,022.0,000.0,031.3,024.6,012.9,0000.0,0003.98,0000.50,0000.24
2024-04-16 05:43:00,SystemResetWarning,0815.7,5.01,000.00,022.8,022.0,000.0,031.3,024.6,013.0,0000.0,0004.05,0000.52,0000.24
2024-04-16 05:44:00,SystemResetWarning,0815.8,5.00,000.00,022.8,022.0,000.0,031.3,024.6,013.1,0000.0,0004.03,0000.51,0000.24
2024-04-16 05:45:00,SystemResetWarning,0815.9,4.98,000.00,022.8,022.1,000.0,031.3,024.6,013.3,0000.0,0004.02,0000.51,0000.24
2024-04-16 05:46:00,SystemResetWarning,0816.0,5.01,000.00,022.8,022.0,000.0,031.3,024.6,013.1,0000.0,0003.99,0000.49,0000.23
2024-04-16 05:47:00,SystemResetWarning,0816.0,5.01,000.00,022.8,022.1,000.0,031.3,024.7,013.0,0000.0,0003.50,0000.43,0000.22
2024-04-16 05:48:00,SystemResetWarning,0815.9,5.01,000.00,022.9,022.1,000.0,031.3,024.7,013.1,0000.0,0002.56,0000.44,0000.21
2024-04-16 05:49:00,SystemResetWarning,0816.0,4.99,000.00,022.9,022.1,000.0,031.3,024.7,013.1,0000.0,0002.58,0000.43,0000.22
2024-04-16 05:50:00,SystemResetWarning,0815.9,4.99,000.00,022.9,022.1,000.0,031.3,024.7,013.1,0000.0,0002.58,0000.43,0000.22
2024-04-16 05:51:00,SystemResetWarning,0816.0,4.99,000.00,022.9,022.1,000.0,031.3,024.7,013.1,0000.0,0002.39,0000.40,0000.21
2024-04-16 05:52:00,SystemResetWarning,0816.0,5.01,000.00,022.9,022.2,000.0,031.3,024.8,013.1,0000.0,0001.07,0000.37,0000.21
2024-04-16 05:53:00,SystemResetWarning,0816.0,5.01,000.00,022.9,022.2,000.0,031.3,024.8,013.1,0000.0,0001.17,0000.34,0000.21
2024-04-16 05:54:00,SystemResetWarning,0816.0,5.00,000.00,022.9,022.2,000.0,031.3,024.8,012.9,0000.0,0001.35,0000.31,0000.20
2024-04-16 05:55:00,SystemResetWarning,0816.1,5.00,000.00,022.9,022.2,000.0,031.3,024.8,012.9,0000.0,0002.35,0000.30,0000.20
2024-04-16 05:56:00,SystemResetWarning,0816.1,5.00,000.00,022.9,022.2,000.0,031.3,024.8,012.9,0000.0,0002.51,0000.32,0000.19
2024-04-16 05:57:00,SystemResetWarning,0816.1,5.00,000.00,022.9,022.3,000.0,031.3,024.8,012.9,0000.0,0002.65,0000.33,0000.20
2024-04-16 05:58:00,SystemResetWarning,0816.1,5.00,000.00,023.0,022.3,000.0,031.3,024.8,012.9,0000.0,0002.74,0000.36,0000.20
2024-04-16 05:59:00,SystemResetWarning,0816.1,5.00,000.00,023.0,022.3,000.0,031.4,024.8,012.9,0000.0,0002.70,0000.35,0000.20
